Location: Hysolar-Haus
(48.7436°N, 9.0965°E)
Time: 05:17:48
(UTC+00:00)

Daily predictions for brighter satellites

Satellite Brightness Start Highest point End
(mag) Time Altitude Azimuth Time Altitude Azimuth Time Altitude Azimuth
CENTAUR R/B 4.5 02:17:29 30° NE 02:17:29 30° NE 02:23:41 10° ENE
USA 267 4.5 02:50:28 10° ENE 02:54:28 34° NE 02:54:28 34° NE
Cosmos 1943 Rocket 4.4 03:05:26 18° NE 03:05:37 18° NE 03:09:23 10° E
Cosmos 2360 Rocket 4.4 03:11:51 17° NNE 03:11:51 17° NNE 03:13:07 10° NNE
Cosmos 2219 Rocket 4.0 03:10:32 26° NE 03:10:32 26° NE 03:13:05 10° NE
USA 229 DEB 4.4 03:12:15 46° E 03:12:15 46° E 03:17:39 10° NE
USA 229 4.4 03:12:16 46° E 03:12:16 46° E 03:17:42 10° NE
Cosmos 2322 Rocket 4.3 03:35:08 17° NNE 03:35:08 17° NNE 03:36:30 10° NNE
ATLAS 3B R/B 3.4 03:41:57 45° N 03:41:57 45° N 03:47:55 10° NE
CZ-4C R/B 3.7 03:38:51 34° N 03:40:40 39° NNE 03:48:09 10° E
COSMO-SKYMED 1 4.1 03:44:15 10° SE 03:47:54 33° ENE 03:47:54 33° ENE
H-2A R/B 3.1 03:45:10 10° NNE 03:49:49 40° E 03:54:32 10° SSE
Cosmos 2034 Rocket 3.9 03:48:59 10° S 03:55:19 83° E 04:01:36 10° N
SL-16 R/B 4.3 04:04:09 15° N 04:04:09 15° N 04:05:20 10° N
Cosmos 1452 Rocket 3.9 04:02:24 56° SSE 04:02:24 56° SSE 04:06:29 10° SSE
Cosmos 2026 Rocket 4.1 03:58:38 11° N 04:04:44 73° E 04:11:02 10° SSE
COSMOS 2428 2.7 04:04:27 67° S 04:05:11 78° ESE 04:10:56 10° NNE
ARIANE 5 R/B 3.1 04:01:03 10° NNE 04:06:13 57° ESE 04:11:21 10° S
Cosmos 2333 Rocket 3.5 04:08:53 28° N 04:08:53 28° N 04:11:54 10° NNE
CENTAUR R/B 3.5 04:04:39 34° NNW 04:08:29 63° NE 04:17:28 10° ESE
BREEZE M DEB (TANK) 3.8 04:09:07 60° WSW 04:10:13 69° SSW 04:28:58 10° ESE
Cosmos 2278 Rocket 2.2 04:11:18 59° N 04:12:21 75° ENE 04:18:00 10° SSE
Cosmos 2195 Rocket 4.3 04:10:21 40° NNW 04:12:47 86° W 04:18:54 10° S
Cosmos 2221 3.1 04:14:15 52° SE 04:14:15 52° SE 04:17:43 10° SSE
NOSS 3-2 (A) 4.4 04:13:18 32° NNW 04:16:48 57° NE 04:25:07 10° ESE
Meteor 1-26 Rocket 4.3 04:14:19 29° N 04:17:33 86° E 04:23:36 10° SSE
Cosmos 2237 Rocket 3.3 04:15:07 10° S 04:20:25 43° ESE 04:25:44 10° NE
Cosmos 1331 Rocket 3.8 04:23:11 77° WSW 04:23:11 77° WSW 04:28:20 10° SSE
Cosmos 1048 Rocket 3.7 04:24:55 78° W 04:25:01 79° WNW 04:30:10 10° NNE
Meteor 2-17 Rocket 4.2 04:23:29 32° NNW 04:26:26 75° W 04:32:27 10° S
Cosmos 1092 Rocket 3.8 04:22:08 18° NNW 04:26:52 78° W 04:33:09 10° S
SL-08 R/B 3.5 04:24:49 10° SSE 04:29:25 66° ENE 04:31:40 30° N
Cosmos 1378 4.4 04:29:39 31° NE 04:30:27 36° ENE 04:33:40 10° SE
Lacrosse 5 rocket 1.9 04:35:42 50° N 04:35:42 50° N 04:39:23 10° NE
Cosmos 2322 3.7 04:34:58 55° WNW 04:35:10 55° WNW 04:40:46 10° NNE
SKYMED 2 3.4 04:31:43 10° SSE 04:36:03 85° WSW 04:36:30 72° NNW
USA 267 3.7 04:32:40 10° E 04:38:56 50° NNE 04:41:48 31° NW
Cosmos 2151 3.5 04:35:10 10° S 04:39:17 57° E 04:43:27 10° NNE
Cosmos 1428 Rocket 4.5 04:38:34 39° NW 04:40:24 52° W 04:46:18 10° SSW
Cosmos 1634 Rocket 3.9 04:34:17 10° S 04:40:30 88° W 04:46:49 10° N
Cosmos 1943 Rocket 2.2 04:46:58 25° NNW 04:50:21 76° ENE 04:55:51 10° SSE
PSLV R/B 4.4 04:46:20 10° NNE 04:50:33 51° E 04:54:42 10° S
Cosmos 1666 3.9 04:47:33 10° SSE 04:50:51 39° E 04:54:10 10° NNE
Cosmos 2219 Rocket 3.0 04:52:17 31° NW 04:52:17 31° NW 04:56:51 10° NNE
Cosmos 2360 Rocket 3.8 04:53:37 19° NNW 04:53:37 19° NNW 04:56:26 10° N
Cosmos 1953 Rocket 3.4 04:48:31 10° SSW 04:52:59 72° W 04:57:29 10° N
NOAA 12 4.3 04:48:36 10° NNE 04:53:53 71° ESE 04:59:07 10° S
Meteor 2-3 Rocket 3.9 04:52:55 24° SW 04:55:54 44° WNW 05:01:16 10° N
SL-19 R/B 4.0 04:53:25 10° N 04:58:47 63° WNW 05:03:56 10° SSW
Cosmos 2279 Rocket 4.0 04:53:11 10° S 04:59:26 87° E 05:05:45 10° N
USA 281 3.1 04:53:18 10° NNE 04:59:54 84° WNW 05:06:28 10° SSW
Cosmos 2285 Rocket 3.9 04:54:11 10° SSW 05:00:33 84° WNW 05:07:00 10° NNE
USA 229 DEB 3.9 04:59:43 32° W 05:02:13 47° NW 05:08:56 10° NE
USA 229 3.9 04:59:44 32° W 05:02:15 47° NW 05:08:59 10° NE
ERS-2 3.1 05:02:22 10° NNE 05:05:06 37° E 05:07:51 10° S
IRS-1C 4.3 05:02:00 10° N 05:07:03 45° WNW 05:12:06 10° SW
TRACE 4.4 05:04:42 10° S 05:08:16 65° WSW 05:09:25 39° NW
SJ-12 3.8 05:07:55 10° N 05:11:56 66° WNW 05:15:56 10° SSW
NOSS 3-1 (A) 4.4 05:10:44 24° NW 05:12:24 27° NNW 05:18:01 10° NE
ATLAS 5 CENTAUR R/B 2.5 05:12:20 10° SSW 05:15:30 38° ESE 05:18:59 10° NE
Cosmos 2322 Rocket 4.0 05:16:56 13° NNW 05:16:56 13° NNW 05:19:18 10° N
SL-08 RB Rocket 3.7 05:12:20 10° NNE 05:17:00 87° ESE 05:21:38 10° SSW
SL-16 R/B 3.6 05:14:12 10° S 05:19:28 40° ESE 05:24:45 10° NE
CZ-2D R/B 3.7 05:16:06 10° N 05:19:45 38° WNW 05:23:24 10° SW
SJ-6F 4.3 05:16:40 10° N 05:20:45 63° WNW 05:24:47 10° SSW
Cosmos 1500 2.9 05:17:37 10° SSW 05:21:07 60° WNW 05:24:38 10° N
Blok-2BL 4.0 05:18:53 12° SW 05:21:08 76° SE 05:25:01 10° NE
Cosmos 1302 Rocket 4.1 05:19:22 20° NW 05:22:43 51° WSW 05:27:45 10° S
CZ-3 R/B 4.2 05:11:08 10° WSW 05:23:29 22° SSW 05:29:17 10° SSE
COSMO-SKYMED 1 3.4 05:20:33 10° SSW 05:24:20 29° W 05:25:06 27° WNW
Cosmos 1437 Rocket 2.8 05:21:03 10° SSW 05:24:36 46° WNW 05:28:10 10° N
H-2A R/B 2.6 05:24:50 10° N 05:29:06 30° WNW 05:33:25 10° SW
CZ-4C R/B 3.0 05:23:59 17° NW 05:29:51 81° SW 05:38:27 10° SSE
Cosmos 2369 Rocket 3.2 05:25:18 10° NNW 05:30:45 44° NE 05:36:11 10° SE
ARGOS 3.1 05:26:02 10° N 05:31:22 62° WNW 05:36:38 10° SSW
ATLAS 3B R/B 4.0 05:29:13 18° NW 05:33:08 27° N 05:39:31 10° NE
Cosmos 1656 Rocket 4.4 05:29:29 10° NNW 05:35:02 52° NE 05:40:35 10° SE
Cosmos 1842 Rocket 4.1 05:31:56 14° NNW 05:35:20 38° W 05:39:27 10° SSW
SJ-11-01 4.2 05:30:49 10° NNE 05:35:32 83° WNW 05:40:14 10° SSW
Cosmos 1602 3.5 05:33:45 10° SSW 05:37:24 68° W 05:41:05 10° N
Cosmos 1992 Rocket 3.9 05:32:12 10° NNW 05:37:25 77° WSW 05:42:37 10° SSE
BREEZE-M DEB (TANK) 3.3 05:35:17 22° W 05:37:36 72° SSW 05:47:57 10° ESE
NOSS 0 Rocket 4.2 05:31:41 10° SW 05:37:41 47° NW 05:43:43 10° NNE
Cosmos 1980 3.8 05:34:29 10° SW 05:40:00 51° NW 05:45:33 10° NNE
CZ-2D R/B 3.0 05:36:25 10° N 05:40:04 65° WNW 05:43:41 10° SSW
Cosmos 1655 Rocket 4.1 05:36:07 10° N 05:42:28 87° E 05:48:50 10° S
SAR-Lupe-2 3.4 05:39:35 10° NNE 05:43:12 81° WNW 05:46:46 10° SSW
Geosat 4.0 05:39:52 10° NNE 05:44:50 61° NW 05:49:46 10° SW
ARIANE 5 R/B 3.5 05:40:45 10° N 05:44:55 25° WNW 05:49:06 10° WSW
Cosmos 1076 Rocket 4.0 05:41:09 10° SW 05:45:09 37° WNW 05:49:14 10° N
USA 215 3.9 05:39:30 10° ENE 05:45:56 58° SE 05:52:21 10° SW
NOSS 3-2 (C) 4.1 05:39:17 12° NW 05:46:11 84° NE 05:54:52 10° SE
Cosmos 614 Rocket 3.9 05:41:32 10° SSW 05:46:44 81° WNW 05:52:00 10° NNE
DELTA 2 DEB (DPAF) 4.1 05:43:45 10° S 05:47:57 56° WSW 05:52:12 10° NNW
COSMOS 2428 3.8 05:46:32 14° W 05:50:05 24° NW 05:54:43 10° N
Cosmos 2221 4.3 05:51:00 14° W 05:51:00 14° W 05:52:33 10° WSW
SJ-7 4.3 05:48:00 10° N 05:52:05 67° WNW 05:56:08 10° SSW
Uosat 12 SS-18 rocket 4.5 05:47:10 11° NW 05:52:20 76° NE 05:56:52 10° SE
Cosmos 2333 Rocket 4.0 05:50:55 12° NW 05:52:21 13° NNW 05:54:57 10° N
CZ-2C R/B 2.6 05:48:51 10° N 05:52:37 70° WNW 05:56:25 10° SSW
SL-08 ROCKET BODY 4.4 05:47:18 10° N 05:53:27 80° W 05:59:37 10° S
Cosmos 2278 Rocket 3.5 05:53:11 15° WNW 05:55:47 20° W 05:59:42 10° SW
CENTAUR R/B 3.6 05:51:49 12° NW 05:59:19 48° WSW 06:07:57 10° S
Cosmos 2266 Rocket 4.1 05:54:47 10° NNW 06:00:41 54° W 06:06:39 10° SSW
Helios 1B rocket 2.6 05:58:40 10° N 06:02:29 44° WNW 06:06:16 10° SW
SeaSat 1 2.9 05:58:04 10° SE 06:02:56 63° NE 06:07:48 10° NNW
Cosmos 2237 Rocket 2.7 05:59:18 10° WSW 06:04:33 38° NW 06:09:49 10° NNE
CZ-4B R/B 3.9 06:01:38 10° NNE 06:05:41 85° W 06:09:51 10° SSW
NOSS 3-2 (A) 4.4 06:00:41 10° NW 06:07:52 51° WSW 06:16:12 10° SSE
Meteor 1-19 Rocket 4.3 06:02:41 10° NNW 06:08:42 73° W 06:14:31 10° S
Intercosmos 25 Rocket 4.1 06:07:34 10° SW 06:11:12 42° WNW 06:16:38 10° N
Lacrosse 5 rocket 2.6 06:10:48 11° WNW 06:14:24 28° N 06:18:14 10° NE
CZ-4B R/B 4.3 06:11:25 10° NNE 06:16:05 53° ESE 06:20:43 10° S
Cosmos 2151 4.5 06:14:08 10° WSW 06:16:48 16° WNW 06:19:31 10° NNW
USA 267 3.3 06:15:08 10° SE 06:21:43 86° SW 06:28:19 10° NW
Cosmos 2297 3.8 06:16:54 10° NNW 06:22:30 62° WSW 06:28:01 10° SSE
Cosmos 1461 3.4 06:18:19 10° WSW 06:22:34 42° NW 06:26:43 10° NNE
Cosmos 1151 Rocket 3.2 06:19:30 10° NNW 06:23:43 51° W 06:27:55 10° S
Cosmos 1666 4.1 06:23:34 10° WSW 06:25:47 16° WNW 06:28:03 10° NNW
NOSS 2-1 (C) 3.2 06:23:07 10° SSW 06:26:24 66° SE 06:29:25 10° NE
Meteor 1-25 Rocket 4.3 06:27:20 10° SSW 06:33:04 62° WNW 06:38:49 10° N
